Momence, IL (60954)

7:34 AM CST on December 28, 2014 (GMT -0600)
Willow Brook | Change Station
CLOSE
Current Station
Personal Weather Station
Location: Bourbonnais, IL
Elevation: 662 ft
Nearby Weather Stations

Elev 662 ft 41.17 °N, 87.82 °W | Updated 2 seconds ago

Overcast
Overcast
25.2 °F
Feels Like 21 °F
N
3.5
Wind Variable Wind from NW
Gusts 3.5 mph

Today
High -- | Low -- °F
--% Chance of Precip.
Yesterday
High -- | Low -- °F
Precip. -- in
7:15 AM 4:29 PM
Waxing Crescent, 48% visible
Pressure 30.18 in
Visibility 10.0 miles
Clouds Overcast 1300 ft
Windchill 21 °F
Dew Point 22 °F
Humidity 86%
Rainfall 0.00 in
Snow Depth Not available.
UV 0.0 out of 12
Pollen .10 out of 12
Air Quality Not available.
Flu Activity Not available.
METAR KIKK 281315Z AUTO 28007KT 10SM OVC013 M03/M06 A3018 RMK AO2 T10351059

More Conditions Fewer Conditions

Pressure 30.18 in
Visibility 10.0 miles
Clouds Overcast 1300 ft
Windchill 21 °F
Dew Point 22 °F
Humidity 86%
Rainfall 0.00 in
Snow Depth Not available.
UV 0.0 out of 12
Pollen .10 out of 12
Air Quality Not available.
Flu Activity Not available.
METAR KIKK 281315Z AUTO 28007KT 10SM OVC013 M03/M06 A3018 RMK AO2 T10351059

More Conditions Fewer Conditions

10-Day Weather Forecast

Almanac

Astronomy

Dec. 28, 2014 Rise Set
Actual Time
Civil Twilight
Nautical Twilight
Astronomical Twilight
Moon
Length of Visible Light
Length of Day
Tomorrow will be .
, % of the Moon is Illuminated

Today's Extremes

State Highs State Lows

Community

WunderPhotos

Upload Photos

1,781,263 photos uploaded!

WunderBlogs® & News

Nearby

Air Quality

  Air Quality AQ Index Pollutant
Not available.

Snow Depth

Station Depth Elevation

Earthquake Activity

City Distance Mag. Time & Date
Minimum magnitude displayed is 2.5.

Coastal Water Temperatures

Place Temperature

Nearby Weather Stations